Regional Weather Roundup
Issued by NWS

Home | Current Version | Previous Version | Graphics & Text | Print | Product List | Glossary On
Versions: 1 2 3 4 5 6 7 8 9 10 11 12 13 14 15 16 17 18 19 20 21 22 23 24 25 26 27 28 29 30 31 32 33 34 35 36 37 38 39 40 41 42 43 44 45 46 47 48 49 50
000
ASUS43 KFSD 282210
RWRSD

WEATHER ROUNDUP FOR SOUTH DAKOTA
NATIONAL WEATHER SERVICE SIOUX FALLS SD
400 PM CST SUN DEC 28 2014

NOTE: "FAIR" INDICATES FEW OR NO CLOUDS BELOW 12,000 FEET WITH NO
SIGNIFICANT WEATHER AND/OR OBSTRUCTIONS TO VISIBILITY.


SDZ001>005-009-010-012>017-282300-
NORTHWEST AND NORTH CENTRAL SOUTH DAKOTA

CITY           SKY/WX    TMP DP  RH WIND       PRES   REMARKS
BUFFALO          N/A     22  16  78 NE15      29.93R WCI   9
FAITH            N/A     19  15  84 E13       30.05R WCI   6
MOBRIDGE       CLOUDY    15  11  83 E12       30.14R WCI   2
$$

SDZ012>016-024>037-041>051-057-063-072>074-282300-
SOUTHWEST AND SOUTH CENTRAL SOUTH DAKOTA

CITY           SKY/WX    TMP DP  RH WIND       PRES   REMARKS
RAPID CTY ARPT FLURRIES  24  18  77 E6        29.96R WCI  17
PIERRE         CLOUDY    18  15  88 E17       30.11R WCI   3
CUSTER         LGT SNOW  19  13  77 NE8       29.82R WCI   9
ELLSWORTH AFB  CLOUDY    24  16  71 E3        29.96R
PHILIP         CLOUDY    21  13  71 E13       30.05R WCI   9
PINE RIDGE     LGT SNOW  26  23  88 E5        29.93R VSB 3/4 WCI  20
SPEARFISH      FAIR      25  19  80 E9        29.92R WCI  15
WINNER         CLOUDY    20  13  74 E13       30.07R WCI   7
$$

SDZ004>011-016>023-039-040-282300-
NORTHEAST SOUTH DAKOTA

CITY           SKY/WX    TMP DP  RH WIND       PRES   REMARKS
ABERDEEN       CLOUDY    10   1  67 NE13      30.25R WCI  -5
WATERTOWN      MOCLDY    14   8  77 NE7       30.18R WCI   4
SISSETON         N/A      7   1  76 N12       30.27R WCI  -8
$$

SDZ017-020-022-023-036>040-048>070-282300-
SOUTHEAST SOUTH DAKOTA

CITY           SKY/WX    TMP DP  RH WIND       PRES   REMARKS
SIOUX FALLS    CLOUDY    20  17  88 NE14      30.16R WCI   7
HURON          CLOUDY    19  15  84 NE13      30.17S WCI   6
CHAMBERLAIN    CLOUDY    20  17  88 E6        30.12R WCI  12
MITCHELL       MOCLDY    21  16  81 E9        30.17R WCI  11
YANKTON        CLOUDY    18  12  79 E5        30.17R WCI  11
$$

ABBREVIATIONS USED IN REMARKS
   TC - TEMPERATURE IN CELSIUS
  WCI - WIND CHILL INDEX
   HX - HEAT INDEX
  VSB - VISIBILITY




USA.gov is the U.S. government's official web portal to all federal, state and local government web resources and services.